Total_Precipitation_Accumulation
1.88 2.26 2.61 3.07 3.51 4.03 4.76 5.38 5.80 5.78 5.60 5.26 4.89 4.61 4.10 3.77 3.50 3.22 2.98 2.77 2.52 2.44 2.79 2.56 2.81 2.69 2.60 2.43 2.38 2.48 2.53 2.28 2.51 2.73 2.24 1.72 1.45 1.37 1.28 1.27 1.33 1.25 1.35
1.84 2.18 2.69 2.99 3.34 3.85 4.40 4.82 4.82 4.49 4.37 4.39 4.29 4.04 4.03 3.85 3.70 3.43 3.20 2.81 2.63 2.51 2.39 2.58 2.40 2.36 2.44 2.26 2.15 2.34 2.34 2.11 2.45 2.56 2.51 1.94 1.69 1.42 1.02 1.13 1.26 1.33 1.58
1.49 1.82 2.37 2.68 2.87 3.33 3.67 3.70 3.59 3.42 3.47 3.53 3.51 3.60 3.80 3.79 3.72 3.55 3.27 2.98 2.82 2.71 2.59 2.49 2.29 2.22 2.06 2.14 2.18 2.24 2.27 2.19 2.19 2.25 2.44 2.07 1.71 1.44 1.09 1.07 1.27 1.53 1.78
1.25 1.54 1.86 2.08 2.34 2.56 2.70 2.69 2.78 2.81 2.82 2.87 2.90 2.82 2.84 3.01 3.20 3.40 3.44 3.37 3.12 2.87 2.61 2.44 2.22 2.05 1.91 2.09 1.83 1.94 2.23 2.32 2.05 2.04 2.00 1.92 2.00 1.93 1.56 1.20 1.12 1.37 1.56
1.27 1.46 1.56 1.71 1.80 1.82 1.94 2.01 2.31 2.63 2.73 2.80 2.91 2.81 2.53 2.51 2.54 2.67 2.81 2.82 2.81 2.64 2.34 2.24 2.17 2.01 1.87 1.86 1.83 2.09 2.11 2.09 2.02 2.07 2.03 2.13 2.26 2.08 1.93 1.60 1.50 1.59 1.53
0.98 1.19 1.44 1.52 1.46 1.43 1.60 1.82 2.12 2.50 2.72 2.79 2.74 2.70 2.59 2.55 2.46 2.48 2.52 2.39 2.37 2.30 2.14 2.06 2.11 1.96 1.83 1.81 1.82 1.96 2.02 2.12 2.20 2.19 2.14 2.19 2.18 2.21 2.40 2.09 1.89 1.84 1.62
0.73 0.74 0.93 1.17 1.13 1.11 1.27 1.54 1.72 2.02 2.24 2.34 2.34 2.26 2.35 2.46 2.34 2.22 2.16 2.08 1.94 1.85 1.85 1.93 2.02 1.86 1.80 1.86 2.00 2.00 1.95 2.07 2.17 2.10 2.16 2.22 2.17 2.31 2.50 2.43 2.11 1.96 1.75
0.53 0.51 0.58 0.73 0.94 0.96 1.02 1.13 1.37 1.58 1.77 1.85 1.97 2.08 2.23 2.34 2.28 2.43 2.24 2.09 1.80 1.65 1.71 1.90 1.96 1.87 1.80 1.78 2.09 2.08 2.08 2.16 2.15 2.04 2.31 2.36 2.16 2.35 2.58 2.70 2.71 2.43 2.25
0.42 0.43 0.50 0.69 0.70 0.71 0.77 0.87 1.10 1.29 1.45 1.59 1.75 1.83 1.80 1.82 1.95 2.13 2.16 2.01 1.91 1.72 1.79 1.86 2.03 2.10 2.15 2.17 2.32 2.24 2.23 2.40 2.38 2.33 2.48 2.48 2.33 2.35 2.48 2.75 2.95 2.97 2.79
0.40 0.41 0.44 0.52 0.52 0.52 0.65 0.88 1.06 1.09 1.31 1.61 1.78 1.68 1.66 1.57 1.72 1.81 1.85 1.91 1.86 1.83 1.86 1.87 1.95 2.06 2.17 2.24 2.40 2.38 2.43 2.60 2.62 2.67 2.74 2.60 2.36 2.44 2.51 2.68 2.95 3.21 3.23
0.45 0.45 0.45 0.45 0.56 0.50 0.60 0.77 0.89 1.02 1.31 1.61 1.80 1.79 1.64 1.62 1.75 1.69 1.67 1.80 1.83 1.81 1.86 1.87 1.84 1.83 1.97 2.19 2.39 2.37 2.52 2.64 2.70 2.69 2.59 2.47 2.51 2.64 2.56 2.70 2.86 3.09 3.31
0.38 0.36 0.33 0.39 0.40 0.40 0.52 0.81 1.12 1.47 1.63 1.87 2.10 2.10 1.81 1.64 1.58 1.47 1.49 1.67 1.86 1.88 1.84 1.83 1.80 1.76 1.86 2.12 2.31 2.42 2.67 2.81 2.73 2.65 2.59 2.47 2.57 2.66 2.62 2.69 2.70 2.76 3.04
0.40 0.39 0.36 0.44 0.42 0.40 0.44 0.57 0.72 1.04 1.35 1.67 1.93 1.87 1.64 1.48 1.45 1.46 1.52 1.66 1.79 1.80 1.76 1.78 1.84 1.96 2.07 2.26 2.40 2.51 2.69 2.66 2.57 2.59 2.51 2.39 2.45 2.41 2.47 2.51 2.49 2.48 2.58
0.50 0.46 0.44 0.42 0.42 0.43 0.42 0.51 0.57 0.64 0.84 1.23 1.50 1.51 1.38 1.33 1.36 1.42 1.44 1.44 1.48 1.55 1.61 1.82 2.05 2.21 2.34 2.42 2.46 2.47 2.45 2.45 2.37 2.28 2.20 2.20 2.29 2.35 2.35 2.28 2.27 2.33 2.46
0.50 0.48 0.47 0.52 0.54 0.59 0.58 0.58 0.59 0.61 0.76 1.14 1.34 1.31 1.27 1.28 1.25 1.26 1.34 1.41 1.47 1.52 1.73 1.91 2.02 2.07 2.13 2.21 2.32 2.32 2.26 2.23 2.14 2.03 1.85 1.88 2.16 2.29 2.26 2.09 2.16 2.25 2.35
0.48 0.45 0.40 0.50 0.59 0.64 0.65 0.63 0.63 0.66 0.77 1.03 1.23 1.23 1.21 1.19 1.14 1.19 1.29 1.45 1.55 1.71 1.88 1.91 1.89 1.85 1.61 1.71 1.83 1.87 1.90 1.90 1.87 1.77 1.71 1.72 1.82 1.83 1.86 1.85 1.85 1.91 2.00
0.46 0.42 0.47 0.59 0.79 0.71 0.71 0.76 0.69 0.68 0.81 1.01 1.18 1.26 1.23 1.26 1.24 1.22 1.38 1.58 1.74 1.89 2.00 1.97 1.91 1.80 1.73 1.63 1.51 1.49 1.54 1.67 1.70 1.72 1.77 1.56 1.42 1.54 1.57 1.68 1.66 1.61 1.68
0.58 0.62 0.59 0.68 0.75 0.72 0.75 0.77 0.76 0.75 0.85 1.05 1.26 1.35 1.30 1.35 1.44 1.44 1.53 1.75 1.96 2.10 2.12 2.07 1.99 1.92 1.86 1.76 1.54 1.50 1.46 1.59 1.63 1.63 1.65 1.62 1.54 1.52 1.61 1.68 1.64 1.51 1.45
0.69 0.74 0.79 0.82 0.89 0.91 0.86 0.83 0.89 0.93 1.01 1.10 1.27 1.38 1.44 1.52 1.55 1.59 1.77 1.99 2.17 2.21 2.17 2.21 2.12 2.05 2.08 1.92 1.58 1.43 1.40 1.57 1.61 1.60 1.57 1.54 1.51 1.55 1.42 1.40 1.44 1.43 1.39
0.85 0.82 0.87 0.90 0.94 0.97 1.01 1.01 1.07 1.20 1.34 1.43 1.50 1.68 1.85 2.01 2.09 2.14 2.21 2.26 2.33 2.25 2.21 2.19 2.20 2.13 2.13 2.02 1.53 1.30 1.31 1.50 1.55 1.62 1.60 1.49 1.37 1.33 1.22 1.22 1.37 1.35 1.33
0.80 0.85 0.86 0.94 1.02 1.03 1.13 1.28 1.36 1.46 1.59 1.72 1.79 1.99 2.28 2.45 2.45 2.47 2.42 2.34 2.35 2.36 2.33 2.24 2.21 2.17 2.09 2.00 1.58 1.39 1.41 1.56 1.65 1.64 1.61 1.55 1.40 1.21 1.15 1.12 1.18 1.24 1.21
0.74 0.84 0.89 0.93 1.08 1.30 1.47 1.70 1.78 1.75 1.83 1.97 2.12 2.31 2.54 2.49 2.43 2.60 2.53 2.49 2.56 2.54 2.41 2.30 2.21 2.23 2.18 1.99 1.68 1.43 1.47 1.62 1.74 1.81 1.77 1.67 1.45 1.20 1.11 1.04 1.04 1.01 0.94
0.72 0.81 0.89 0.99 1.13 1.37 1.71 1.94 2.00 2.10 2.12 2.18 2.30 2.36 2.44 2.61 2.77 2.83 2.72 2.63 2.62 2.55 2.36 2.25 2.12 2.04 2.10 2.12 1.71 1.42 1.47 1.56 1.61 1.78 1.82 1.55 1.32 1.15 1.00 0.98 0.97 0.87 0.81
0.77 0.81 0.89 1.06 1.30 1.50 1.79 1.93 1.96 1.99 2.02 2.05 2.05 2.13 2.26 2.40 2.49 2.73 2.79 2.70 2.57 2.50 2.44 2.34 2.18 2.06 2.08 2.07 1.74 1.43 1.41 1.48 1.47 1.55 1.62 1.48 1.30 1.15 1.03 0.97 0.93 0.88 0.90
0.79 0.87 0.95 1.07 1.21 1.41 1.60 1.68 1.81 1.87 1.97 1.98 1.93 1.92 1.95 2.07 2.17 2.27 2.38 2.35 2.34 2.16 2.06 1.97 1.90 1.88 1.90 1.87 1.61 1.41 1.40 1.51 1.56 1.53 1.55 1.54 1.40 1.27 1.17 1.14 1.17 1.18 1.13
0.76 0.86 0.98 1.11 1.21 1.37 1.58 1.65 1.76 1.83 1.88 1.84 1.77 1.79 1.81 1.89 1.94 1.93 1.88 1.72 1.65 1.50 1.35 1.29 1.24 1.25 1.31 1.41 1.26 1.13 1.22 1.37 1.42 1.34 1.36 1.47 1.46 1.39 1.31 1.25 1.25 1.24 1.18